Muskegon, MI

11:54 AM EDT on August 19, 2017 (GMT -0400)
Muskegon County

Weather History for KMKG - January, 2013

Change the Weather History Date:

Wednesday, January 2, 2013

  Actual Average Record
Temperature  
Mean Temperature 26 °F 27 °F  
Max Temperature 30 °F 32 °F 57 °F (2004)
Min Temperature 22 °F 22 °F 2 °F (1979)
Degree Days  
Heating Degree Days 39 38  
Month to date heating degree days 80 76  
Since 1 July heating degree days 2279 2522  
Cooling Degree Days 0 0  
Month to date cooling degree days 0 0  
Year to date cooling degree days 0 0  
Moisture  
Dew Point 18 °F    
Average Humidity 69    
Maximum Humidity 75    
Minimum Humidity 62    
Precipitation  
Precipitation T in 0.07 in 0.75 in (1936)
Month to date precipitation T 0.14  
Year to date precipitation T 0.14  
Snow  
Snow T in 0.80 in 8.50 in (1979)
Month to date snowfall T 1.7  
Since 1 July snowfall 8.2 36.8  
Snow Depth 2.00 in    
Sea Level Pressure  
Sea Level Pressure 30.14 in    
Wind  
Wind Speed 9 mph (WSW)    
Max Wind Speed 17 mph    
Max Gust Speed 24 mph    
Visibility 10 miles    
Events Snow    
T = Trace of Precipitation, MM = Missing Value Source: NWS Daily Summary

Daily Weather History Graph

Daily Weather History Graph

Search for Another Location

Airport or City:

Trip Planner

Search our weather history database for the weather conditions in past years. The results will help you decide how hot, cold, wet, or windy it might be!

Date:

Astronomy

Jan. 02, 2013 Rise Set
Actual Time 8:16 AM EST 5:21 PM EST
Civil Twilight 7:44 AM EST 5:53 PM EST
Nautical Twilight 7:08 AM EST 6:29 PM EST
Astronomical Twilight 6:34 AM EST 7:04 PM EST
Moon 11:03 PM EST (1/2) 10:49 AM EST (1/2)
Length of Visible Light 10h 09m
Length of Day
9h 04m
Waning Gibbous, 75% of the Moon is Illuminated
Jan 2
Waning Gibbous
Jan 4
Last Quarter
Jan 11
New
Jan 18
First Quarter
Jan 26
Full

Hourly Weather History & Observations

Time (EST) Temp. Windchill Dew Point Humidity Pressure Visibility Wind Dir Wind Speed Gust Speed Precip Events Conditions
12:55 AM 21.9 °F 14.5 °F 12.9 °F 68% 30.12 in 10.0 mi NW 5.8 mph - N/A   Overcast
1:55 AM 23.0 °F 15.8 °F 15.1 °F 72% 30.12 in 10.0 mi NNW 5.8 mph - N/A   Overcast
2:55 AM 25.0 °F 15.5 °F 15.1 °F 66% 30.11 in 10.0 mi WNW 9.2 mph - N/A   Overcast
3:55 AM 25.0 °F 16.3 °F 15.1 °F 66% 30.13 in 10.0 mi West 8.1 mph - N/A   Overcast
4:55 AM 25.0 °F 14.8 °F 16.0 °F 69% 30.12 in 10.0 mi WNW 10.4 mph - N/A   Overcast
5:55 AM 25.0 °F 15.5 °F 16.0 °F 69% 30.12 in 9.0 mi West 9.2 mph - 0.00 in Snow Light Snow
6:55 AM 25.0 °F 14.2 °F 16.0 °F 69% 30.13 in 9.0 mi WNW 11.5 mph - 0.00 in Snow Light Snow
7:55 AM 26.1 °F 16.2 °F 17.1 °F 69% 30.14 in 9.0 mi WNW 10.4 mph - 0.00 in Snow Light Snow
8:55 AM 26.1 °F 16.2 °F 18.0 °F 71% 30.14 in 10.0 mi WNW 10.4 mph - 0.00 in   Overcast
9:55 AM 27.0 °F 16.1 °F 19.0 °F 72% 30.16 in 10.0 mi West 12.7 mph - N/A   Overcast
10:55 AM 26.1 °F 16.2 °F 19.0 °F 75% 30.18 in 9.0 mi West 10.4 mph - 0.00 in Snow Light Snow
11:33 AM 26.6 °F 19.1 °F 19.4 °F 74% 30.15 in 9.0 mi West 6.9 mph - 0.00 in Snow Light Snow
11:55 AM 26.1 °F 16.2 °F 19.0 °F 75% 30.17 in 9.0 mi West 10.4 mph 17.3 mph 0.00 in Snow Light Snow
12:55 PM 26.1 °F 16.8 °F 19.0 °F 75% 30.17 in 9.0 mi WSW 9.2 mph - 0.00 in Snow Light Snow
1:55 PM 26.1 °F 20.5 °F 19.0 °F 75% 30.14 in 9.0 mi SW 4.6 mph - 0.00 in Snow Light Snow
2:55 PM 26.1 °F 20.5 °F 19.9 °F 78% 30.13 in 10.0 mi WSW 4.6 mph - 0.00 in   Overcast
3:55 PM 27.0 °F 18.7 °F 19.9 °F 75% 30.14 in 10.0 mi SSW 8.1 mph - N/A   Overcast
4:05 PM 26.6 °F 18.2 °F 19.4 °F 74% 30.11 in 10.0 mi SW 8.1 mph - N/A   Overcast
4:55 PM 28.0 °F 21.7 °F 19.9 °F 72% 30.14 in 10.0 mi SSW 5.8 mph - N/A   Overcast
5:55 PM 28.9 °F 23.9 °F 21.0 °F 72% 30.14 in 10.0 mi South 4.6 mph - N/A   Overcast
6:55 PM 28.9 °F 23.9 °F 21.0 °F 72% 30.14 in 10.0 mi South 4.6 mph - N/A   Overcast
7:55 PM 28.4 °F 18.5 °F 19.4 °F 69% 30.11 in 10.0 mi SSE 11.5 mph 23.0 mph N/A   Overcast
8:55 PM 26.1 °F 14.5 °F 15.1 °F 63% 30.14 in 10.0 mi SSE 13.8 mph - N/A   Overcast
9:55 PM 25.0 °F 13.6 °F 14.0 °F 63% 30.13 in 10.0 mi SSE 12.7 mph - N/A   Overcast
10:55 PM 24.1 °F 13.1 °F 14.0 °F 65% 30.12 in 10.0 mi SSE 11.5 mph - N/A   Overcast
11:55 PM 23.0 °F 11.7 °F 12.9 °F 65% 30.12 in 10.0 mi SSE 11.5 mph 18.4 mph N/A   Overcast